| time (UTC) | temp F | wind direction | speed MPH | gust MPH | rain 1hr in | rain 24hr in | rain mn in | humidity % | barometer mb |
| 20260503220852 | 52 | 133 | 5.0 | 15.0 | 0.00 | 0.00 | 0.00 | 46 | 1017.9 |
| 20260503220352 | 52 | 175 | 6.0 | 15.0 | 0.00 | 0.00 | 0.00 | 46 | 1018.0 |
| 20260503215855 | 52 | 226 | 5.0 | 11.0 | 0.00 | 0.00 | 0.00 | 48 | 1018.1 |
| 20260503215850 | 52 | 162 | 5.0 | 11.0 | 0.00 | 0.00 | 0.00 | 46 | 1018.1 |
| 20260503214844 | 51 | 26 | 6.0 | 12.0 | 0.00 | 0.00 | 0.00 | 47 | 1018.0 |
| 20260503214344 | 51 | 174 | 6.0 | 13.0 | 0.00 | 0.00 | 0.00 | 47 | 1018.1 |
| 20260503213844 | 51 | 135 | 6.0 | 13.0 | 0.00 | 0.00 | 0.00 | 46 | 1018.1 |
| 20260503213344 | 51 | 198 | 6.0 | 12.0 | 0.00 | 0.00 | 0.00 | 47 | 1018.2 |
| 20260503212844 | 51 | 203 | 6.0 | 16.0 | 0.00 | 0.00 | 0.00 | 47 | 1018.1 |
| 20260503212345 | 51 | 200 | 7.0 | 16.0 | 0.00 | 0.00 | 0.00 | 47 | 1018.1 |
| 20260503211844 | 51 | 208 | 6.0 | 15.0 | 0.00 | 0.00 | 0.00 | 47 | 1018.1 |
| 20260503211344 | 51 | 195 | 6.0 | 15.0 | 0.00 | 0.00 | 0.00 | 47 | 1018.1 |
| 20260503210844 | 51 | 117 | 6.0 | 15.0 | 0.00 | 0.00 | 0.00 | 47 | 1018.1 |
| 20260503210344 | 51 | 142 | 6.0 | 10.0 | 0.00 | 0.00 | 0.00 | 48 | 1018.1 |
| 20260503205849 | 51 | 176 | 5.0 | 13.0 | 0.00 | 0.00 | 0.00 | 47 | 1018.3 |
| 20260503205845 | 51 | 200 | 6.0 | 10.0 | 0.00 | 0.00 | 0.00 | 47 | 1018.2 |
| 20260503204844 | 51 | 199 | 6.0 | 13.0 | 0.00 | 0.00 | 0.00 | 48 | 1018.3 |
| 20260503204344 | 51 | 145 | 6.0 | 15.0 | 0.00 | 0.00 | 0.00 | 47 | 1018.4 |
| 20260503203844 | 51 | 187 | 6.0 | 15.0 | 0.00 | 0.00 | 0.00 | 47 | 1018.3 |
| 20260503203344 | 51 | 129 | 6.0 | 15.0 | 0.00 | 0.00 | 0.00 | 48 | 1018.3 |
| 20260503202846 | 51 | 185 | 6.0 | 18.0 | 0.00 | 0.00 | 0.00 | 48 | 1018.3 |
| 20260503202345 | 51 | 183 | 6.0 | 18.0 | 0.00 | 0.00 | 0.00 | 48 | 1018.4 |
| 20260503201844 | 51 | 177 | 6.0 | 15.0 | 0.00 | 0.00 | 0.00 | 49 | 1018.4 |
| 20260503201344 | 51 | 179 | 8.0 | 16.0 | 0.00 | 0.00 | 0.00 | 48 | 1018.4 |
| 20260503200844 | 51 | 206 | 6.0 | 16.0 | 0.00 | 0.00 | 0.00 | 47 | 1018.5 |
| 20260503200346 | 51 | 193 | 6.0 | 16.0 | 0.00 | 0.00 | 0.00 | 48 | 1018.4 |
| 20260503195844 | 50 | 180 | 7.0 | 16.0 | 0.00 | 0.00 | 0.00 | 48 | 1018.4 |
| 20260503195344 | 50 | 133 | 7.0 | 15.0 | 0.00 | 0.00 | 0.00 | 50 | 1018.4 |
| 20260503194844 | 50 | 120 | 6.0 | 15.0 | 0.00 | 0.00 | 0.00 | 50 | 1018.3 |
| 20260503194338 | 50 | 154 | 6.0 | 12.0 | 0.00 | 0.00 | 0.00 | 50 | 1018.3 |
| 20260503193842 | 50 | 122 | 5.0 | 10.0 | 0.00 | 0.00 | 0.00 | 51 | 1018.6 |
| 20260503193838 | 50 | 118 | 5.0 | 11.0 | 0.00 | 0.00 | 0.00 | 51 | 1018.4 |
| 20260503192842 | 49 | 118 | 4.0 | 11.0 | 0.00 | 0.00 | 0.00 | 51 | 1018.6 |
| 20260503192838 | 49 | 127 | 5.0 | 11.0 | 0.00 | 0.00 | 0.00 | 51 | 1018.7 |
| 20260503191833 | 49 | 168 | 4.0 | 10.0 | 0.00 | 0.00 | 0.00 | 52 | 1018.6 |
| 20260503191334 | 49 | 118 | 3.0 | 8.0 | 0.00 | 0.00 | 0.00 | 52 | 1018.6 |
| 20260503190835 | 49 | 131 | 4.0 | 7.0 | 0.00 | 0.00 | 0.00 | 52 | 1018.7 |
| 20260503190829 | 49 | 141 | 3.0 | 7.0 | 0.00 | 0.00 | 0.00 | 52 | 1018.6 |
| 20260503185830 | 49 | 196 | 3.0 | 7.0 | 0.00 | 0.00 | 0.00 | 53 | 1018.7 |
| 20260503185332 | 48 | 114 | 3.0 | 9.0 | 0.00 | 0.00 | 0.00 | 53 | 1018.8 |
| 20260503185328 | 49 | 176 | 3.0 | 9.0 | 0.00 | 0.00 | 0.00 | 53 | 1018.6 |
| 20260503184933 | 49 | 167 | 3.0 | 7.0 | 0.00 | 0.00 | 0.00 | 53 | 1018.6 |
| 20260503184433 | 48 | 180 | 2.0 | 7.0 | 0.00 | 0.00 | 0.00 | 53 | 1018.5 |
| 20260503183326 | 48 | 115 | 3.0 | 6.0 | 0.00 | 0.00 | 0.00 | 53 | 1018.5 |
| 20260503182829 | 48 | 111 | 1.0 | 5.0 | 0.00 | 0.00 | 0.00 | 53 | 1018.5 |
| 20260503182825 | 48 | 142 | 2.0 | 6.0 | 0.00 | 0.00 | 0.00 | 53 | 1018.6 |
| 20260503181826 | 48 | 131 | 1.0 | 5.0 | 0.00 | 0.00 | 0.00 | 53 | 1018.6 |
| 20260503181328 | 48 | 160 | 1.0 | 5.0 | 0.00 | 0.00 | 0.00 | 53 | 1018.7 |
| 20260503181324 | 47 | 105 | 2.0 | 5.0 | 0.00 | 0.00 | 0.00 | 56 | 1018.7 |
| 20260503180926 | 47 | 106 | 1.0 | 5.0 | 0.00 | 0.00 | 0.00 | 54 | 1018.8 |
| 20260503175822 | 47 | 128 | 2.0 | 5.0 | 0.00 | 0.00 | 0.00 | 55 | 1018.8 |
| 20260503175324 | 47 | 111 | 3.0 | 8.0 | 0.00 | 0.00 | 0.00 | 55 | 1018.8 |
| 20260503175320 | 47 | 130 | 3.0 | 5.0 | 0.00 | 0.00 | 0.00 | 55 | 1018.8 |
| 20260503174320 | 47 | 125 | 3.0 | 8.0 | 0.00 | 0.00 | 0.00 | 55 | 1018.7 |
| 20260503173819 | 47 | 153 | 2.0 | 5.0 | 0.00 | 0.00 | 0.00 | 56 | 1018.9 |
| 20260503173320 | 47 | 174 | 3.0 | 6.0 | 0.00 | 0.00 | 0.00 | 56 | 1018.9 |
| 20260503172820 | 47 | 188 | 2.0 | 6.0 | 0.00 | 0.00 | 0.00 | 57 | 1018.9 |
| 20260503172320 | 46 | 118 | 2.0 | 6.0 | 0.00 | 0.00 | 0.00 | 57 | 1018.8 |
| 20260503171820 | 46 | 109 | 3.0 | 6.0 | 0.00 | 0.00 | 0.00 | 59 | 1019.0 |
| 20260503171319 | 45 | 76 | 3.0 | 7.0 | 0.00 | 0.00 | 0.00 | 59 | 1018.9 |
| 20260503170815 | 45 | 127 | 3.0 | 7.0 | 0.00 | 0.00 | 0.00 | 60 | 1018.9 |
| 20260503170315 | 45 | 53 | 3.0 | 7.0 | 0.00 | 0.00 | 0.00 | 60 | 1019.0 |
| 20260503150808 | 43 | 120 | 3.0 | 7.0 | 0.00 | 0.00 | 0.00 | 64 | 1019.2 |
| 20260503150803 | 43 | 62 | 2.0 | 5.0 | 0.00 | 0.00 | 0.00 | 65 | 1019.3 |
| 20260503150409 | 43 | 121 | 3.0 | 7.0 | 0.00 | 0.00 | 0.00 | 64 | 1019.2 |
| 20260503140259 | 43 | 52 | 4.0 | 9.0 | 0.00 | 0.00 | 0.00 | 64 | 1019.3 |
| 20260503131257 | 43 | 105 | 2.0 | 6.0 | 0.00 | 0.00 | 0.00 | 64 | 1019.4 |
| 20260503130757 | 43 | 1 | 2.0 | 7.0 | 0.00 | 0.00 | 0.00 | 64 | 1019.4 |
| 20260503130257 | 43 | 122 | 4.0 | 7.0 | 0.00 | 0.00 | 0.00 | 63 | 1019.4 |
| 20260503110751 | 44 | 149 | 5.0 | 14.0 | 0.00 | 0.00 | 0.00 | 62 | 1019.7 |
| 20260503110251 | 44 | 130 | 4.0 | 11.0 | 0.00 | 0.00 | 0.00 | 62 | 1019.6 |
| 20260503100253 | 45 | 149 | 4.0 | 11.0 | 0.00 | 0.00 | 0.00 | 59 | 1019.4 |
| 20260503100249 | 45 | 161 | 5.0 | 13.0 | 0.00 | 0.00 | 0.00 | 58 | 1019.5 |
| 20260503090240 | 45 | 187 | 6.0 | 16.0 | 0.00 | 0.00 | 0.00 | 59 | 1019.2 |
| 20260503081234 | 46 | 112 | 7.0 | 14.0 | 0.00 | 0.00 | 0.00 | 57 | 1019.0 |
| 20260503080734 | 46 | 180 | 6.0 | 12.0 | 0.00 | 0.00 | 0.00 | 57 | 1018.9 |
| 20260503080341 | 46 | 124 | 6.0 | 16.0 | 0.00 | 0.00 | 0.00 | 56 | 1018.9 |
| 20260503080239 | 46 | 154 | 7.0 | 18.0 | 0.00 | 0.00 | 0.00 | 56 | 1018.8 |
| 20260503080235 | 46 | 195 | 6.0 | 18.0 | 0.00 | 0.00 | 0.00 | 56 | 1018.8 |
| 20260503072729 | 46 | 171 | 5.0 | 15.0 | 0.00 | 0.00 | 0.00 | 57 | 1018.6 |
| 20260503072229 | 46 | 160 | 4.0 | 11.0 | 0.00 | 0.00 | 0.00 | 56 | 1018.6 |
| 20260503071729 | 46 | 173 | 5.0 | 12.0 | 0.00 | 0.00 | 0.00 | 56 | 1018.7 |
| 20260503071229 | 46 | 179 | 6.0 | 14.0 | 0.00 | 0.00 | 0.00 | 56 | 1018.7 |
| 20260503070729 | 46 | 133 | 6.0 | 15.0 | 0.00 | 0.00 | 0.00 | 56 | 1018.5 |
| 20260503070229 | 46 | 170 | 6.0 | 15.0 | 0.00 | 0.00 | 0.00 | 56 | 1018.6 |
| 20260503054725 | 47 | 192 | 6.0 | 16.0 | 0.00 | 0.00 | 0.00 | 55 | 1018.0 |
| 20260503054225 | 47 | 174 | 7.0 | 16.0 | 0.00 | 0.00 | 0.00 | 56 | 1017.9 |
| 20260503053726 | 47 | 179 | 8.0 | 16.0 | 0.00 | 0.00 | 0.00 | 56 | 1017.9 |
| 20260503053224 | 47 | 183 | 7.0 | 16.0 | 0.00 | 0.00 | 0.00 | 57 | 1017.7 |
| 20260503052723 | 47 | 151 | 7.0 | 14.0 | 0.00 | 0.00 | 0.00 | 57 | 1017.8 |
| 20260503052224 | 47 | 188 | 8.0 | 14.0 | 0.00 | 0.00 | 0.00 | 56 | 1017.8 |
| 20260503052220 | 47 | 165 | 8.0 | 18.0 | 0.00 | 0.00 | 0.00 | 56 | 1017.7 |
| 20260503051219 | 47 | 188 | 8.0 | 18.0 | 0.00 | 0.00 | 0.00 | 56 | 1017.9 |
| 20260503050719 | 47 | 162 | 8.0 | 18.0 | 0.00 | 0.00 | 0.00 | 56 | 1017.7 |
| 20260503050218 | 47 | 166 | 7.0 | 15.0 | 0.00 | 0.00 | 0.00 | 56 | 1017.6 |
| 20260503045719 | 47 | 107 | 6.0 | 14.0 | 0.00 | 0.00 | 0.00 | 55 | 1017.5 |
| 20260503045217 | 47 | 143 | 7.0 | 20.0 | 0.00 | 0.00 | 0.00 | 55 | 1017.5 |
| 20260503044716 | 47 | 149 | 8.0 | 20.0 | 0.00 | 0.00 | 0.00 | 55 | 1017.4 |
| 20260503044210 | 47 | 172 | 7.0 | 14.0 | 0.00 | 0.00 | 0.00 | 54 | 1017.5 |
| 20260503043711 | 47 | 167 | 7.0 | 17.0 | 0.00 | 0.00 | 0.00 | 54 | 1017.4 |
| 20260503043205 | 48 | 183 | 6.0 | 17.0 | 0.00 | 0.00 | 0.00 | 53 | 1017.5 |
| 20260503042705 | 48 | 236 | 6.0 | 13.0 | 0.00 | 0.00 | 0.00 | 53 | 1017.3 |
| 20260503042205 | 48 | 114 | 6.0 | 13.0 | 0.00 | 0.00 | 0.00 | 52 | 1017.3 |
| 20260503041708 | 48 | 181 | 6.0 | 15.0 | 0.00 | 0.00 | 0.00 | 52 | 1017.2 |
| 20260503041704 | 48 | 199 | 6.0 | 15.0 | 0.00 | 0.00 | 0.00 | 52 | 1017.2 |
| 20260503040703 | 49 | 194 | 6.0 | 13.0 | 0.00 | 0.00 | 0.00 | 51 | 1017.2 |
| 20260503040200 | 49 | 209 | 7.0 | 17.0 | 0.00 | 0.00 | 0.00 | 51 | 1017.1 |
| 20260503035702 | 49 | 205 | 8.0 | 17.0 | 0.00 | 0.00 | 0.00 | 51 | 1017.0 |
| 20260503035157 | 49 | 210 | 7.0 | 16.0 | 0.00 | 0.00 | 0.00 | 50 | 1017.0 |
| 20260503034657 | 49 | 145 | 6.0 | 13.0 | 0.00 | 0.00 | 0.00 | 50 | 1017.1 |
| 20260503034157 | 49 | 172 | 6.0 | 13.0 | 0.00 | 0.00 | 0.00 | 50 | 1017.2 |
| 20260503033657 | 49 | 149 | 6.0 | 13.0 | 0.00 | 0.00 | 0.00 | 50 | 1017.1 |
| 20260503033156 | 50 | 153 | 6.0 | 15.0 | 0.00 | 0.00 | 0.00 | 50 | 1017.1 |
| 20260503032657 | 49 | 181 | 6.0 | 15.0 | 0.00 | 0.00 | 0.00 | 51 | 1017.1 |
| 20260503032157 | 49 | 177 | 6.0 | 11.0 | 0.00 | 0.00 | 0.00 | 51 | 1017.1 |
| 20260503031657 | 49 | 157 | 6.0 | 12.0 | 0.00 | 0.00 | 0.00 | 51 | 1017.1 |
| 20260503031159 | 49 | 156 | 7.0 | 16.0 | 0.00 | 0.00 | 0.00 | 51 | 1017.2 |
| 20260503031155 | 49 | 160 | 7.0 | 16.0 | 0.00 | 0.00 | 0.00 | 51 | 1017.2 |
| 20260503030154 | 49 | 170 | 6.0 | 14.0 | 0.00 | 0.00 | 0.00 | 51 | 1017.1 |
| 20260503025657 | 50 | 149 | 7.0 | 19.0 | 0.00 | 0.00 | 0.00 | 51 | 1017.0 |
| 20260503025652 | 49 | 174 | 6.0 | 14.0 | 0.00 | 0.00 | 0.00 | 51 | 1017.0 |
| 20260503024653 | 50 | 169 | 9.0 | 23.0 | 0.00 | 0.00 | 0.00 | 50 | 1016.9 |
| 20260503024157 | 50 | 198 | 8.0 | 20.0 | 0.00 | 0.00 | 0.00 | 50 | 1017.0 |
| 20260503024153 | 50 | 199 | 9.0 | 23.0 | 0.00 | 0.00 | 0.00 | 50 | 1017.0 |
| 20260503023153 | 50 | 147 | 6.0 | 16.0 | 0.00 | 0.00 | 0.00 | 49 | 1017.0 |
| 20260503022649 | 51 | 171 | 4.0 | 15.0 | 0.00 | 0.00 | 0.00 | 49 | 1016.9 |
| 20260503022148 | 51 | 185 | 4.0 | 9.0 | 0.00 | 0.00 | 0.00 | 51 | 1016.8 |
| 20260503021648 | 51 | 201 | 4.0 | 9.0 | 0.00 | 0.00 | 0.00 | 50 | 1016.8 |
| 20260503021149 | 51 | 195 | 4.0 | 10.0 | 0.00 | 0.00 | 0.00 | 51 | 1016.9 |
| 20260503020649 | 51 | 182 | 4.0 | 10.0 | 0.00 | 0.00 | 0.00 | 50 | 1016.9 |
| 20260503020147 | 51 | 151 | 4.0 | 9.0 | 0.00 | 0.00 | 0.00 | 50 | 1016.8 |
| 20260503015646 | 51 | 183 | 2.0 | 9.0 | 0.00 | 0.00 | 0.00 | 50 | 1016.6 |
| 20260503015146 | 52 | 213 | 1.0 | 7.0 | 0.00 | 0.00 | 0.00 | 50 | 1016.6 |
| 20260503014646 | 52 | 255 | 2.0 | 7.0 | 0.00 | 0.00 | 0.00 | 51 | 1016.6 |
| 20260503014145 | 51 | 208 | 3.0 | 8.0 | 0.00 | 0.00 | 0.00 | 53 | 1016.6 |
| 20260503014140 | 51 | 228 | 3.0 | 7.0 | 0.00 | 0.00 | 0.00 | 52 | 1016.5 |
| 20260503013141 | 51 | 186 | 3.0 | 8.0 | 0.00 | 0.00 | 0.00 | 53 | 1016.8 |
| 20260503012641 | 51 | 286 | 2.0 | 6.0 | 0.00 | 0.00 | 0.00 | 52 | 1016.5 |
| 20260503012140 | 51 | 274 | 2.0 | 5.0 | 0.00 | 0.00 | 0.00 | 50 | 1016.4 |
| 20260503011640 | 51 | 297 | 2.0 | 6.0 | 0.00 | 0.00 | 0.00 | 49 | 1016.3 |
| 20260503011141 | 51 | 297 | 3.0 | 6.0 | 0.00 | 0.00 | 0.00 | 48 | 1016.3 |
| 20260503010641 | 52 | 296 | 3.0 | 7.0 | 0.00 | 0.00 | 0.00 | 48 | 1016.5 |
| 20260503010141 | 52 | 330 | 3.0 | 7.0 | 0.00 | 0.00 | 0.00 | 49 | 1016.3 |
| 20260503005641 | 53 | 236 | 3.0 | 9.0 | 0.00 | 0.00 | 0.00 | 48 | 1016.4 |
| 20260503005141 | 53 | 225 | 3.0 | 9.0 | 0.00 | 0.00 | 0.00 | 47 | 1016.2 |
| 20260503004644 | 52 | 282 | 3.0 | 8.0 | 0.00 | 0.00 | 0.00 | 48 | 1016.2 |
| 20260503004640 | 52 | 293 | 2.0 | 6.0 | 0.00 | 0.00 | 0.00 | 48 | 1016.2 |
| 20260503003640 | 51 | 278 | 3.0 | 8.0 | 0.00 | 0.00 | 0.00 | 48 | 1016.2 |
| 20260503003144 | 51 | 276 | 4.0 | 8.0 | 0.00 | 0.00 | 0.00 | 49 | 1016.2 |
| 20260503003140 | 51 | 294 | 3.0 | 7.0 | 0.00 | 0.00 | 0.00 | 50 | 1016.2 |
| 20260503002140 | 51 | 272 | 3.0 | 8.0 | 0.00 | 0.00 | 0.00 | 50 | 1016.2 |
| 20260503001641 | 51 | 270 | 4.0 | 8.0 | 0.00 | 0.00 | 0.00 | 50 | 1016.2 |
| 20260503001140 | 51 | 236 | 4.0 | 8.0 | 0.00 | 0.00 | 0.00 | 49 | 1016.3 |
| 20260503000640 | 51 | 260 | 4.0 | 7.0 | 0.00 | 0.00 | 0.00 | 49 | 1016.3 |
| 20260503000141 | 51 | 261 | 4.0 | 10.0 | 0.00 | 0.00 | 0.00 | 50 | 1016.2 |
| 20260502235641 | 51 | 264 | 4.0 | 10.0 | 0.00 | 0.00 | 0.00 | 49 | 1016.2 |
| 20260502235141 | 51 | 241 | 2.0 | 8.0 | 0.00 | 0.00 | 0.00 | 48 | 1016.2 |
| 20260502234641 | 52 | 218 | 1.0 | 7.0 | 0.00 | 0.00 | 0.00 | 48 | 1016.0 |
| 20260502234140 | 51 | 230 | 2.0 | 7.0 | 0.00 | 0.00 | 0.00 | 49 | 1016.0 |
| 20260502233638 | 52 | 243 | 3.0 | 7.0 | 0.00 | 0.00 | 0.00 | 49 | 1016.0 |
| 20260502233143 | 52 | 212 | 2.0 | 10.0 | 0.00 | 0.00 | 0.00 | 47 | 1015.6 |
| 20260502233139 | 52 | 223 | 4.0 | 10.0 | 0.00 | 0.00 | 0.00 | 48 | 1015.8 |
| 20260502232134 | 52 | 210 | 1.0 | 4.0 | 0.00 | 0.00 | 0.00 | 48 | 1015.5 |
| 20260502231635 | 52 | 191 | 2.0 | 5.0 | 0.00 | 0.00 | 0.00 | 50 | 1015.5 |
| 20260502231137 | 52 | 262 | 2.0 | 5.0 | 0.00 | 0.00 | 0.00 | 48 | 1015.5 |
| 20260502231133 | 52 | 245 | 2.0 | 5.0 | 0.00 | 0.00 | 0.00 | 48 | 1015.4 |
| 20260502230131 | 52 | 222 | 3.0 | 10.0 | 0.00 | 0.00 | 0.00 | 47 | 1015.5 |
| 20260502225630 | 52 | 258 | 4.0 | 10.0 | 0.00 | 0.00 | 0.00 | 50 | 1015.5 |
| 20260502225124 | 52 | 211 | 3.0 | 10.0 | 0.00 | 0.00 | 0.00 | 51 | 1015.6 |
| 20260502224624 | 52 | 247 | 3.0 | 10.0 | 0.00 | 0.00 | 0.00 | 50 | 1015.5 |
| 20260502224125 | 52 | 275 | 2.0 | 9.0 | 0.00 | 0.00 | 0.00 | 51 | 1015.6 |
| 20260502223624 | 51 | 240 | 3.0 | 8.0 | 0.00 | 0.00 | 0.00 | 53 | 1015.6 |
| 20260502223129 | 52 | 195 | 2.0 | 8.0 | 0.00 | 0.00 | 0.00 | 50 | 1015.3 |
| 20260502223125 | 51 | 206 | 3.0 | 8.0 | 0.00 | 0.00 | 0.00 | 51 | 1015.5 |
| 20260502222124 | 52 | 258 | 1.0 | 4.0 | 0.00 | 0.00 | 0.00 | 52 | 1015.3 |
| 20260502221624 | 51 | 272 | 1.0 | 6.0 | 0.00 | 0.00 | 0.00 | 54 | 1015.3 |